Location: Albuquerque Trailhead
(34.7934°N, 106.3736°W)
Time: 13:27:07
(UTC+00:00)

FALCON 9 DEB - Pass Details

Date: 20 June 2021
Orbit: 363 x 377 km, 53.0° (Epoch: 31 July)

Event Time Altitude Azimuth Distance (km) Brightness Sun altitude
Rises 03:46:20 0° 233° (SW) 2,239 6.9 -14.8°
Reaches altitude 10° 03:48:23 10° 237° (WSW) 1,393 5.9 -15.1°
Maximum altitude 03:51:28 56° 317° (NW) 458 3.5 -15.6°
Drops below altitude 10° 03:54:34 10° 37° (NE) 1,408 5.8 -16.0°
Sets 03:56:39 0° 42° (NE) 2,266 6.8 -16.3°
